This is the latest recevied weather packets stored in our database for station/object TG5ALY-16. If no packets are shown the sender has not sent any weather packets the latest 10 day(s).
| Time | Temp. | Humidity | Pressure | Rain* | Wind** | Luminosity | Snow |
|---|---|---|---|---|---|---|---|
| 1777964235 | 12.22° C | 90% | 1018 hPa | 0 mm | - | - | - |
| 1777963635 | 12.22° C | 90% | 1019 hPa | 0 mm | - | - | - |
| 1777963034 | 12.22° C | 91% | 1019 hPa | 0 mm | - | - | - |
| 1777962433 | 12.22° C | 90% | 1019 hPa | 0 mm | - | - | - |
| 1777961833 | 12.78° C | 88% | 1019 hPa | 0 mm | - | - | - |
| 1777961232 | 12.78° C | 88% | 1019 hPa | 0 mm | - | - | - |
| 1777960632 | 12.78° C | 88% | 1019 hPa | 0 mm | - | - | - |
| 1777960031 | 12.78° C | 88% | 1019 hPa | 0 mm | - | - | - |
| 1777959430 | 13.33° C | 86% | 1019 hPa | 0 mm | - | - | - |
| 1777958830 | 13.33° C | 87% | 1019 hPa | 0 mm | - | - | - |
| 1777958229 | 13.33° C | 90% | 1019 hPa | 0 mm | - | - | - |
| 1777957629 | 13.33° C | 90% | 1019 hPa | 0 mm | - | - | - |
| 1777957028 | 13.33° C | 90% | 1019 hPa | 0 mm | - | - | - |
| 1777956428 | 13.33° C | 89% | 1019 hPa | 0 mm | - | - | - |
| 1777955827 | 13.33° C | 86% | 1019 hPa | 0 mm | - | - | - |
| 1777955226 | 13.33° C | 86% | 1019 hPa | 0 mm | - | - | - |
| 1777954626 | 13.89° C | 85% | 1019 hPa | 0 mm | - | - | - |
| 1777954025 | 13.89° C | 86% | 1020 hPa | 0 mm | - | - | - |
| 1777953424 | 13.89° C | 86% | 1020 hPa | 0 mm | - | - | - |
| 1777943419 | 15.56° C | 83% | 1017 hPa | 0 mm | - | - | - |
| 1777942218 | 16.11° C | 77% | 1017 hPa | 0 mm | - | - | - |
| 1777941617 | 16.11° C | 78% | 1017 hPa | 0 mm | - | - | - |
| 1777930205 | 20° C | 63% | 1014 hPa | 0 mm | - | - | - |
| 1777924799 | 20° C | 71% | 1015 hPa | 0.25 mm | - | - | - |
| 1777922997 | 20° C | 68% | 1016 hPa | 0.25 mm | - | - | - |
* Rain latest hour (hover to see other rain measurements)
** Current wind speed in m/s (hover to see current wind gust speed)